Location: Penum?ka
(16.4840°N, 80.5772°E)
Time: 02:09:17
(UTC+00:00)

Resurs 01 Rocket - Pass Details

Date: 19 May 2025
Orbit: 628 x 637 km, 97.7° (Epoch: 24 June)

Event Time Altitude Azimuth Distance (km) Brightness Sun altitude
Exits shadow 14:13:26 22° 155° (SSE) 1,381 2.9 -16.4°
Maximum altitude 14:16:10 66° 78° (ENE) 690 1.5 -16.9°
Drops below altitude 10° 14:20:30 10° 356° (N) 2,007 4.6 -17.9°
Sets 14:22:42 0° 353° (N) 2,914 5.5 -18.3°
